User: anonymous   Login
Location: Unspecified
(0.0000°N, 0.0000°E)
Time: 02:07:25
(UTC+00:00)
Language:

STARLINK-31869 - Orbit

View from above orbital plane
View from above orbital plane
View from above satellite
View from above satellite

Ground track
Ground track

The orbit is defined by the following mean orbital elements,

1 60196U          26145.46072197 +.00000000 +00000-0 +16376-4 0 00006
2 60196  53.1611 325.6237 0001359 108.8656 251.2493 15.31705970    05
Epoch (UTC): 25 May 2026 11:03:26
Eccentricity: 0.0001359
inclination: 53.1611°
perigee height: 470 km
apogee height: 472 km
right ascension of ascending node: 325.6237°
argument of perigee: 108.8656°
revolutions per day: 15.31705970
mean anomaly at epoch: 251.2493°

The dashed part of the orbit path shows where the satellite is in the earth's shadow,  

DLR